Location: Allen Fire Department Station 4
(33.1073°N, 96.6988°W)
Time: 10:12:52
(UTC+00:00)

CORIOLIS - Pass Details

Date: 03 December 2021
Orbit: 818 x 839 km, 98.7° (Epoch: 23 January)

Event Time Altitude Azimuth Distance (km) Brightness Sun altitude
Rises 12:42:31 0° 14° (NNE) 3,396 7.3 -6.8°
Reaches altitude 10° 12:44:54 10° 16° (NNE) 2,458 6.6 -6.4°
Maximum altitude 12:50:21 77° 102° (ESE) 862 4.5 -5.3°
Drops below altitude 10° 12:55:45 10° 189° (S) 2,437 6.8 -4.3°
Sets 12:58:06 0° 190° (S) 3,365 7.5 -3.8°
